User: anonymous   Login
Location: Unspecified
(0.0000°N, 0.0000°E)
Time: 21:50:38
(UTC+01:00)
Language:

Meteor 2-8 Rocket - Orbit

View from above orbital plane
View from above orbital plane
View from above satellite
View from above satellite

Ground track
Ground track

The orbit data is extracted from the following two-line orbital elements,

1 13114U 82025B   17023.41356045  .00000008  00000-0 -61557-5 0  9996
2 13114  82.5421 317.9596 0014148 191.9302 307.5039 13.84657957760372
Epoch (UTC): 23 January 2017 09:55:31
Eccentricity: 0.0014148
inclination: 82.5421°
perigee height: 937 km
apogee height: 958 km
right ascension of ascending node: 317.9596°
argument of perigee: 191.9302°
revolutions per day: 13.84657957
mean anomaly at epoch: 307.5039°
orbit number at epoch: 76037

The dashed part of the orbit path shows where the satellite is in the earth's shadow,  

DLR